Simultaneous Nadir Overpasses (SNOs) Predictions

Prediction of SNOs between NOAA-15 and METOP-C Satellite Orbit:

Table of predicted SNOs for the next 14.0 days since TLE Epoch: 3/1/2023
Index Date (NOAA-15) Time (NOAA-15) Lat,Lon (NOAA-15) SZA (NOAA-15 ) Date (METOP-C) Time (METOP-C) Lat,Lon (METOP-C) SZA (METOP-C ) Distance(km) Time Diff (sec)
1 03/14/2023 18:50:57 -81.07, 115.99 94.82 03/14/2023 18:49:54 -81.08, 115.98 94.84 1.58 63
2 03/14/2023 19:41:31 81.08, -77.00 85.15 03/14/2023 19:40:34 81.07, -76.93 85.12 1.70 57
3 03/14/2023 20:31:59 -81.08, 90.46 94.87 03/14/2023 20:31:16 -81.07, 90.47 94.89 0.56 43
4 03/14/2023 21:22:32 81.08,-102.16 85.13 03/14/2023 21:21:55 81.08,-102.07 85.12 1.41 37
5 03/14/2023 22:13:00 -81.07, 65.30 94.89 03/14/2023 22:12:37 -81.08, 65.33 94.89 0.93 23
6 03/14/2023 23:03:33 81.07,-127.31 85.10 03/14/2023 23:03:16 81.08,-127.22 85.12 2.18 17
7 03/14/2023 23:54:02 -81.09, 39.77 94.93 03/14/2023 23:53:59 -81.07, 39.81 94.94 1.50 3
8 03/15/2023 00:44:35 81.08,-152.84 85.06 03/15/2023 00:44:38 81.08,-152.73 85.07 1.93 3
9 03/15/2023 01:35:03 -81.08, 14.61 94.95 03/15/2023 01:35:20 -81.08, 14.67 94.94 1.02 17
10 03/15/2023 02:25:36 81.08,-177.99 85.04 03/15/2023 02:25:59 81.09,-177.87 85.07 2.17 23



Historial Predications of SNOs between NOAA-15 and METOP-C
